Hamilton, OH

2:40 PM EDT on September 27, 2016 (GMT -0400)
Butler County Regional

Weather History for KHAO - February, 2013

Change the Weather History Date:

Friday, February 1, 2013

  Actual Average (KCVG) Record (KCVG)
Temperature  
Mean Temperature 12 °F 32 °F  
Max Temperature 18 °F 40 °F 66 °F (1989)
Min Temperature 7 °F 24 °F -5 °F (1929)
Degree Days  
Heating Degree Days 52 33  
Month to date heating degree days 33  
Since 1 July heating degree days 3005  
Cooling Degree Days 0 0  
Month to date cooling degree days 0  
Year to date cooling degree days 0  
Moisture  
Dew Point 2 °F    
Average Humidity 65    
Maximum Humidity 83    
Minimum Humidity 54    
Precipitation  
Precipitation 0.00 in 0.11 in 1.93 in (1988)
Month to date precipitation 0.11  
Year to date precipitation 3.11  
Snow  
Snow 0.00 in 0.30 in 9.30 in (1966)
Month to date snowfall 0.3  
Since 1 July snowfall 12.4  
Snow Depth -    
Sea Level Pressure  
Sea Level Pressure 30.33 in    
Wind  
Wind Speed 13 mph (West)    
Max Wind Speed 24 mph    
Max Gust Speed 32 mph    
Visibility 9 miles    
Events Snow    
T = Trace of Precipitation, MM = Missing Value Source: NWS Daily Summary

Daily Weather History Graph

Daily Weather History Graph

Search for Another Location

Airport or City:

Trip Planner

Search our weather history database for the weather conditions in past years. The results will help you decide how hot, cold, wet, or windy it might be!

Date:

Astronomy

Feb. 01, 2013 Rise Set
Actual Time 7:45 AM EST 5:58 PM EST
Civil Twilight 7:16 AM EST 6:27 PM EST
Nautical Twilight 6:44 AM EST 6:59 PM EST
Astronomical Twilight 6:13 AM EST 7:30 PM EST
Moon No Moon Rise 10:20 AM EST (2/1)
Length of Visible Light 11h 10m
Length of Day
10h 13m
Waning Gibbous, 70% of the Moon is Illuminated
Feb 1
Waning Gibbous
Feb 3
Last Quarter
Feb 10
New
Feb 17
First Quarter
Feb 25
Full

Hourly Weather History & Observations

Time (EST) Temp. Windchill Dew Point Humidity Pressure Visibility Wind Dir Wind Speed Gust Speed Precip Events Conditions
12:01 AM 15.8 °F -1.9 °F 6.8 °F 68% 30.07 in 2.5 mi WNW 21.9 mph 31.1 mph 0.00 in Snow Light Snow
12:10 AM 17.6 °F 3.7 °F 6.8 °F 63% 30.07 in 4.0 mi WNW 13.8 mph 28.8 mph 0.00 in Snow Light Snow
12:28 AM 15.8 °F -2.7 °F 8.6 °F 73% 30.08 in 1.8 mi WNW 24.2 mph 32.2 mph 0.00 in Snow Light Snow
12:40 AM 15.8 °F -1.5 °F 5.0 °F 62% 30.09 in 3.0 mi WNW 20.7 mph 29.9 mph 0.00 in Snow Light Snow
12:53 AM 14.0 °F -3.9 °F 3.9 °F 64% 30.13 in 6.0 mi WNW 20.7 mph 29.9 mph 0.00 in Snow Light Snow
2:53 AM 10.9 °F -4.1 °F 1.0 °F 64% 30.23 in 9.0 mi West 12.7 mph 23.0 mph 0.00 in Snow Light Snow
3:33 AM 10.4 °F -4.8 °F -0.4 °F 62% 30.22 in 10.0 mi West 12.7 mph 19.6 mph 0.00 in   Mostly Cloudy
3:53 AM 10.0 °F -5.2 °F -0.9 °F 61% 30.27 in 10.0 mi West 12.7 mph 21.9 mph 0.00 in   Scattered Clouds
4:53 AM 9.0 °F -4.2 °F -0.9 °F 64% 30.29 in 9.0 mi West 9.2 mph 16.1 mph 0.00 in Snow Light Snow
5:53 AM 8.1 °F -6.2 °F -2.0 °F 64% 30.32 in 10.0 mi West 10.4 mph 18.4 mph 0.00 in   Clear
6:53 AM 8.1 °F -4.3 °F -2.0 °F 64% 30.35 in 10.0 mi West 8.1 mph - N/A   Clear
7:53 AM 7.0 °F -4.5 °F -2.0 °F 67% 30.38 in 10.0 mi West 6.9 mph - N/A   Clear
8:53 AM 8.1 °F -4.3 °F -0.9 °F 67% 30.40 in 10.0 mi West 8.1 mph - N/A   Clear
9:53 AM 10.0 °F -5.2 °F -0.9 °F 61% 30.43 in 10.0 mi West 12.7 mph 19.6 mph N/A   Partly Cloudy
10:53 AM 12.9 °F 0.7 °F 1.9 °F 62% 30.45 in 10.0 mi West 9.2 mph 16.1 mph N/A   Mostly Cloudy
11:36 AM 14.0 °F 1.2 °F 1.4 °F 57% 30.42 in 10.0 mi West 10.4 mph - N/A   Scattered Clouds
11:53 AM 15.1 °F 4.2 °F 1.9 °F 56% 30.46 in 10.0 mi SW 8.1 mph 17.3 mph N/A   Clear
12:53 PM 15.1 °F 2.5 °F 1.9 °F 56% 30.46 in 10.0 mi West 10.4 mph 17.3 mph N/A   Scattered Clouds
1:53 PM 17.1 °F 3.6 °F 3.9 °F 56% 30.45 in 10.0 mi West 12.7 mph 18.4 mph N/A   Scattered Clouds
2:53 PM 18.0 °F 11.1 °F 5.0 °F 57% 30.43 in 10.0 mi West 4.6 mph - N/A   Scattered Clouds
4:53 PM 18.0 °F 6.9 °F 3.9 °F 54% 30.42 in 10.0 mi West 9.2 mph - N/A   Partly Cloudy
5:53 PM 16.0 °F 5.3 °F 3.0 °F 57% 30.43 in 10.0 mi West 8.1 mph - N/A   Clear
6:53 PM 14.0 °F 8.2 °F 3.0 °F 62% 30.43 in 10.0 mi West 3.5 mph - N/A   Clear
7:53 PM 10.9 °F - 3.9 °F 73% 30.43 in 10.0 mi Calm Calm - N/A   Clear
8:53 PM 9.0 °F - 3.0 °F 77% 30.43 in 10.0 mi Calm Calm - N/A   Clear
9:53 PM 9.0 °F - 3.9 °F 80% 30.41 in 10.0 mi Calm Calm - N/A   Clear
10:53 PM 8.1 °F - 3.9 °F 83% 30.39 in 10.0 mi Calm Calm - N/A   Clear
11:53 PM 9.0 °F - 3.9 °F 80% 30.39 in 10.0 mi Calm Calm - N/A   Clear